GW4212 Weather Reports


time (UTC)temp
F
wind
direction
speed
knots
gust
knots
rain 1hr
in
rain 24hr
in
rain mn
in
humidity
%
barometer
mb
20260504081941 81 0.0 0.0 0.00 0.00 0.00 99 1013.8
20260504080935 76 0.0 0.0 0.00 0.00 0.00 99 1014.0
20260504050330 63 0.0 0.0 0.00 0.00 0.00 99 1013.7
20260504045312 63 0.0 0.0 0.00 0.00 0.00 99 1013.6
20260504044244 64 0.0 0.0 0.00 0.00 0.00 99 1013.4
20260504043233 64 0.0 0.0 0.00 0.00 0.00 99 1013.3
20260504042221 64 0.0 0.0 0.00 0.00 0.00 99 1013.3
20260504041154 64 0.0 0.0 0.00 0.00 0.00 99 1013.3
20260504040048 64 0.0 0.0 0.00 0.00 0.00 99 1013.3
20260504035030 64 0.0 0.0 0.00 0.00 0.00 99 1013.6
20260504034019 63 0.0 0.0 0.00 0.00 0.00 99 1013.8
20260504033008 63 0.0 0.0 0.00 0.00 0.00 99 1014.0
20260504031856 64 0.0 0.0 0.00 0.00 0.00 99 1014.2
20260504030844 64 0.0 0.0 0.00 0.00 0.00 99 1014.3
20260504025848 62 0.0 0.0 0.00 0.00 0.00 99 1014.4
20260504021552 62 0.0 0.0 0.00 0.00 0.00 99 1014.4
20260504020541 62 0.0 0.0 0.00 0.00 0.00 99 1014.5
20260504015529 62 0.0 0.0 0.00 0.00 0.00 99 1014.5
20260504014524 62 0.0 0.0 0.00 0.00 0.00 99 1014.6
20260504013507 61 0.0 0.0 0.00 0.00 0.00 99 1014.6
20260504012456 62 0.0 0.0 0.00 0.00 0.00 99 1014.6
20260504011445 62 0.0 0.0 0.00 0.00 0.00 99 1014.5
20260504010417 62 0.0 0.0 0.00 0.00 0.00 99 1014.5
20260504005406 62 0.0 0.0 0.00 0.00 0.00 99 1014.5
20260504004358 63 0.0 0.0 0.00 0.00 0.00 99 1014.4
20260504003236 63 0.0 0.0 0.00 0.00 0.00 99 1014.3
20260504002225 62 0.0 0.0 0.00 0.00 0.00 99 1014.5
20260504001214 63 0.0 0.0 0.00 0.00 0.00 99 1014.5
20260504000204 63 0.0 0.0 0.00 0.00 0.00 99 1014.6
20260503235151 63 0.0 0.0 0.00 0.00 0.00 99 1014.6
20260503234145 63 0.0 0.0 0.00 0.00 0.00 99 1014.8
20260503233128 63 0.0 0.0 0.00 0.00 0.00 99 1014.9
20260503232016 63 0.0 0.0 0.00 0.00 0.00 99 1015.1
20260503231004 63 0.0 0.0 0.00 0.00 0.00 99 1015.1
20260503225953 64 0.0 0.0 0.00 0.00 0.00 99 1015.1
20260503224941 64 0.0 0.0 0.00 0.00 0.00 99 1015.3
20260503223918 64 0.0 0.0 0.00 0.00 0.00 99 1015.4
20260503222903 63 0.0 0.0 0.00 0.00 0.00 99 1015.5
20260503221852 63 0.0 0.0 0.00 0.00 0.00 99 1015.4
20260503220840 64 0.0 0.0 0.00 0.00 0.00 99 1015.4
20260503215829 63 0.0 0.0 0.00 0.00 0.00 99 1015.4
20260503214818 64 0.0 0.0 0.00 0.00 0.00 99 1015.5
20260503213812 64 0.0 0.0 0.00 0.00 0.00 99 1015.5
20260503212755 63 0.0 0.0 0.00 0.00 0.00 99 1015.6
20260503211744 63 0.0 0.0 0.00 0.00 0.00 99 1015.5
20260503210732 63 0.0 0.0 0.00 0.00 0.00 99 1015.4
20260503205722 63 0.0 0.0 0.00 0.00 0.00 99 1015.3
20260503204711 63 0.0 0.0 0.00 0.00 0.00 99 1015.3
20260503203704 63 0.0 0.0 0.00 0.00 0.00 99 1015.3
20260503202546 62 0.0 0.0 0.00 0.00 0.00 99 1015.1
20260503201536 62 0.0 0.0 0.00 0.00 0.00 99 1015.0
20260503200524 62 0.0 0.0 0.00 0.00 0.00 99 1014.8
20260503195512 62 0.0 0.0 0.00 0.00 0.00 99 1014.6
20260503194502 62 0.0 0.0 0.00 0.00 0.00 99 1014.5
20260503193456 62 0.0 0.0 0.00 0.00 0.00 99 1014.2
20260503192439 62 0.0 0.0 0.00 0.00 0.00 99 1014.0
20260503191119 62 0.0 0.0 0.00 0.00 0.00 99 1013.9
20260503190108 62 0.0 0.0 0.00 0.00 0.00 99 1014.0
20260503185057 63 0.0 0.0 0.00 0.00 0.00 99 1014.0
20260503184046 63 0.0 0.0 0.00 0.00 0.00 99 1013.9
20260503183041 63 0.0 0.0 0.00 0.00 0.00 99 1013.7
20260503182007 63 0.0 0.0 0.00 0.00 0.00 99 1013.7
20260503180956 63 0.0 0.0 0.00 0.00 0.00 99 1013.8
20260503175945 62 0.0 0.0 0.00 0.00 0.00 99 1013.8
20260503174934 63 0.0 0.0 0.00 0.00 0.00 99 1013.7
20260503173923 63 0.0 0.0 0.00 0.00 0.00 99 1013.7
20260503172917 63 0.0 0.0 0.00 0.00 0.00 99 1013.6
20260503171900 62 0.0 0.0 0.00 0.00 0.00 99 1013.7
20260503170849 62 0.0 0.0 0.00 0.00 0.00 99 1013.8
20260503150337 64 0.0 0.0 0.00 0.00 0.00 99 1014.3
20260503140231 66 0.0 0.0 0.00 0.00 0.00 99 1015.0
20260503131135 66 0.0 0.0 0.00 0.00 0.00 99 1015.0
20260503130124 66 0.0 0.0 0.00 0.00 0.00 99 1015.0
20260503110756 69 0.0 0.0 0.00 0.00 0.00 99 1015.7